Iridium Next SV168
operational LEOCIRCULARPOLAR
Über Iridium Next SV168
Group: 3 satellites
Beschreibung wird geladen...
Live-Position
3D-Globus wird geladen...
Nächste Überflüge
Höhenverlauf
Altitude vs Time
uPlot chart will show altitude changes over time
Zweizeiliger Elementsatz
1 43924U 19002C 25354.17336559 .00000231 00000-0 75591-4 0 9999
2 43924 86.3964 68.5059 0002115 98.2912 261.8523 14.34216450363316
Epoch: 20. Dez. 2025 •
Age: 6 hours
Aktueller Status
Höhe 796.8 km
Geschwindigkeit 7.45 km/s
Subsatellitenpunkt -46.10°S,
175.73°E
Startdatum 11. Jan. 2019
Alter 6.9 years
Typ communications
Technische Details
Klassifizierung Payload
Masse 860.00 kg
Trockenmasse 700.00 kg
Gesamtmasse 860.00 kg
Länge 3.10 m
Durchmesser 1.50 m
Spannweite 9.40 m
Form Half Hex Prism+2 pan
Hersteller NGISGA
Bus-Typ EliteBus
Phasenstatus In Orbit
Besitzer/Staat IRIDS/US
Große Konstellationen
Loading constellations...